N0ERG Weather Reports


Display with metric or nautical units.
time (UTC)temp
F
wind
direction
speed
MPH
gust
MPH
rain 1hr
in
rain 24hr
in
rain mn
in
humidity
%
barometer
mb
20220930003006 73 28 0.0 3.0 0.00 0.00 0.00 36 1004.9
20220930002005 75 350 1.0 6.0 0.00 0.00 0.00 34 1004.7
20220930001004 76 43 1.0 3.0 0.00 0.00 0.00 36 1004.6
20220929235004 78 31 0.0 1.0 0.00 0.00 0.00 33 1004.2
20220929234005 80 31 0.0 1.0 0.00 0.00 0.00 29 1004.1
20220929233004 81 31 0.0 1.0 0.00 0.00 0.00 28 1004.0
20220929232005 82 31 0.0 2.0 0.00 0.00 0.00 30 1004.0
20220929231004 83 64 0.0 1.0 0.00 0.00 0.00 24 1004.1
20220929230004 84 64 0.0 3.0 0.00 0.00 0.00 25 1004.2
20220929225004 85 357 1.0 3.0 0.00 0.00 0.00 23 1004.3
20220929224004 86 156 1.0 3.0 0.00 0.00 0.00 21 1004.3
20220929222005 85 134 0.0 3.0 0.00 0.00 0.00 23 1004.5
20220929221004 84 120 1.0 3.0 0.00 0.00 0.00 25 1004.6
20220929215004 83 126 1.0 5.0 0.00 0.00 0.00 24 1004.7
20220929213004 82 80 4.0 10.0 0.00 0.00 0.00 27 1004.9
20220929212004 82 72 3.0 10.0 0.00 0.00 0.00 27 1005.0
20220929211004 81 65 6.0 10.0 0.00 0.00 0.00 27 1005.2
20220929210004 79 114 3.0 10.0 0.00 0.00 0.00 28 1005.2
20220929204004 73 76 5.0 17.0 0.00 0.00 0.00 32 1005.7
20220929203004 71 38 2.0 13.0 0.00 0.00 0.00 38 1006.0
20220929202004 71 200 5.0 13.0 0.00 0.00 0.00 33 1007.0
20220929195004 76 299 8.0 20.0 0.00 0.00 0.00 28 1006.5
20220929194004 78 267 3.0 12.0 0.00 0.00 0.00 26 1006.4
20220929193004 82 320 6.0 12.0 0.00 0.00 0.00 23 1006.5
20220929192005 84 292 0.0 6.0 0.00 0.00 0.00 22 1006.3
20220929191004 85 78 1.0 8.0 0.00 0.00 0.00 22 1006.3
20220929190004 85 52 2.0 7.0 0.00 0.00 0.00 24 1006.3
20220929185004 84 90 0.0 5.0 0.00 0.00 0.00 24 1006.6
20220929184004 84 265 1.0 5.0 0.00 0.00 0.00 23 1006.7
20220929182004 83 60 2.0 7.0 0.00 0.00 0.00 26 1007.1
20220929180004 81 88 1.0 5.0 0.00 0.00 0.00 28 1007.6
20220929175004 80 108 1.0 3.0 0.00 0.00 0.00 28 1007.8
20220929174004 79 79 2.0 3.0 0.00 0.00 0.00 30 1008.0
20220929171005 77 94 1.0 5.0 0.00 0.00 0.00 32 1008.4
20220929165004 74 152 2.0 6.0 0.00 0.00 0.00 36 1008.7
20220929162005 72 98 1.0 9.0 0.00 0.00 0.00 36 1009.2
20220929160006 71 178 2.0 6.0 0.00 0.00 0.00 38 1009.4
20220929155005 70 157 1.0 3.0 0.00 0.00 0.00 39 1009.4
20220929154005 69 170 1.0 6.0 0.00 0.00 0.00 39 1009.4
20220929153005 69 175 2.0 5.0 0.00 0.00 0.00 41 1009.5
20220929152005 68 168 2.0 8.0 0.00 0.00 0.00 42 1009.5
20220929150006 66 167 1.0 3.0 0.00 0.00 0.00 44 1009.7
20220929145006 65 261 1.0 6.0 0.00 0.00 0.00 46 1009.8
20220929144006 65 190 2.0 3.0 0.00 0.00 0.00 45 1009.8
20220929143006 64 174 2.0 5.0 0.00 0.00 0.00 47 1009.8
20220929141006 63 177 2.0 7.0 0.00 0.00 0.00 47 1009.8
20220929140005 62 203 1.0 6.0 0.00 0.00 0.00 50 1009.8
20220929135006 61 152 2.0 7.0 0.00 0.00 0.00 50 1009.7
20220929134006 60 163 2.0 7.0 0.00 0.00 0.00 51 1009.8
20220929133006 60 168 0.0 5.0 0.00 0.00 0.00 52 1009.8
20220929132006 59 175 2.0 9.0 0.00 0.00 0.00 52 1010.0
20220929131006 58 110 0.0 7.0 0.00 0.00 0.00 53 1009.9
20220929130005 57 149 0.0 3.0 0.00 0.00 0.00 55 1010.0
20220929125005 57 234 0.0 1.0 0.00 0.00 0.00 55 1009.9
20220929124005 56 194 0.0 3.0 0.00 0.00 0.00 56 1009.9
20220929123007 56 164 0.0 1.0 0.00 0.00 0.00 57 1009.9
20220929122006 56 164 0.0 2.0 0.00 0.00 0.00 57 1010.1
20220929121006 56 161 1.0 2.0 0.00 0.00 0.00 57 1010.1
20220929115006 56 200 1.0 2.0 0.00 0.00 0.00 56 1010.0
20220929114006 56 178 1.0 3.0 0.00 0.00 0.00 56 1010.0
20220929111005 57 185 0.0 1.0 0.00 0.00 0.00 55 1010.0
20220929105005 59 185 0.0 1.0 0.00 0.00 0.00 53 1009.9
20220929102005 58 225 1.0 3.0 0.00 0.00 0.00 53 1010.1
20220929100005 56 195 1.0 5.0 0.00 0.00 0.00 56 1010.1
20220929094005 55 175 1.0 2.0 0.00 0.00 0.00 59 1010.0
20220929092004 54 175 0.0 1.0 0.00 0.00 0.00 60 1010.1
20220929091005 54 175 0.0 2.0 0.00 0.00 0.00 60 1010.0
20220929090004 54 175 0.0 1.0 0.00 0.00 0.00 60 1010.1
20220929085005 55 175 0.0 1.0 0.00 0.00 0.00 59 1010.1
20220929080005 59 175 0.0 1.0 0.00 0.00 0.00 50 1010.4
20220929075005 60 175 0.0 0.0 0.00 0.00 0.00 48 1010.4
20220929071005 62 180 1.0 5.0 0.00 0.00 0.00 45 1010.4
20220929065005 63 178 1.0 3.0 0.00 0.00 0.00 44 1010.5
20220929055005 63 171 1.0 3.0 0.00 0.00 0.00 43 1011.1
20220929053005 63 86 0.0 2.0 0.00 0.00 0.00 43 1011.2
20220929051005 63 141 0.0 3.0 0.00 0.00 0.00 44 1011.0
20220929045006 61 84 0.0 2.0 0.00 0.00 0.00 46 1010.9
20220929042005 62 99 1.0 3.0 0.00 0.00 0.00 45 1010.9
20220929041005 62 119 1.0 3.0 0.00 0.00 0.00 45 1010.9
20220929040005 63 34 1.0 2.0 0.00 0.00 0.00 44 1010.8
20220929034006 65 34 1.0 2.0 0.00 0.00 0.00 41 1010.7
20220929032005 66 29 0.0 3.0 0.00 0.00 0.00 39 1010.7
20220929031005 67 99 1.0 2.0 0.00 0.00 0.00 39 1010.6
20220929030005 67 117 1.0 3.0 0.00 0.00 0.00 38 1010.6
20220929025005 68 183 0.0 5.0 0.00 0.00 0.00 37 1010.5
20220929023004 68 87 1.0 7.0 0.00 0.00 0.00 37 1010.2
20220929022004 68 184 1.0 3.0 0.00 0.00 0.00 38 1010.1
20220929020004 68 93 2.0 7.0 0.00 0.00 0.00 37 1010.1
20220929014004 69 172 0.0 3.0 0.00 0.00 0.00 38 1010.1
20220929013005 69 113 1.0 3.0 0.00 0.00 0.00 37 1010.1
20220929010005 71 131 1.0 3.0 0.00 0.00 0.00 36 1010.0
20220929005005 72 71 0.0 2.0 0.00 0.00 0.00 34 1010.1